User: anonymous   Login
Location: Unspecified
(0.0000°N, 0.0000°E)
Time: 09:43:35
(UTC+00:00)
Language:

OBJECT V - Orbit

View from above orbital plane
View from above orbital plane
View from above satellite
View from above satellite

Ground track
Ground track

The orbit data is extracted from the following two-line orbital elements,

1 42844U 17042V   18018.85657916  .00000059  00000-0  11266-4 0  9995
2 42844  97.6063 286.9241 0011902 334.8131  25.2506 14.91720593 28093
Epoch (UTC): 18 January 2018 20:33:28
Eccentricity: 0.0011902
inclination: 97.6063°
perigee height: 584 km
apogee height: 601 km
right ascension of ascending node: 286.9241°
argument of perigee: 334.8131°
revolutions per day: 14.91720593
mean anomaly at epoch: 25.2506°
orbit number at epoch: 2809

The dashed part of the orbit path shows where the satellite is in the earth's shadow,  

DLR